Time,TemperatureF,DewpointF,PressureIn,WindDirection,WindDirectionDegrees,WindSpeedMPH,WindSpeedGustMPH,Humidity,HourlyPrecipIn,Conditions,Clouds,dailyrainin,SolarRadiationWatts/m^2,SoftwareType,DateUTC
2014-04-17 00:05:00,44.1,23.6,30.02,SE,144,12.0,-999.0,44,0.00,,,0.00,0,WeatherHawk,2014-04-17 05:05:00,
2014-04-17 00:10:00,44.1,23.6,30.02,SSE,147,11.0,-999.0,44,0.00,,,0.00,0,WeatherHawk,2014-04-17 05:10:00,
2014-04-17 00:20:00,43.8,23.3,30.02,South,173,10.0,-999.0,44,0.00,,,0.00,0,WeatherHawk,2014-04-17 05:20:00,
2014-04-17 00:30:00,43.9,23.4,30.01,SE,132,9.0,-999.0,44,0.00,,,0.00,0,WeatherHawk,2014-04-17 05:30:00,
2014-04-17 00:38:00,43.9,23.4,30.02,South,171,13.0,-999.0,44,0.00,,,0.00,0,WeatherHawk,2014-04-17 05:38:00,
2014-04-17 00:55:00,43.7,23.8,30.02,SSE,163,11.0,-999.0,45,0.00,,,0.00,0,WeatherHawk,2014-04-17 05:55:00,
2014-04-17 01:14:00,43.5,23.5,30.01,SE,131,10.0,-999.0,45,0.00,,,0.00,0,WeatherHawk,2014-04-17 06:14:00,
2014-04-17 01:25:00,43.6,23.6,30.02,SSE,158,9.0,-999.0,45,0.00,,,0.00,0,WeatherHawk,2014-04-17 06:25:00,
2014-04-17 01:40:00,43.7,23.3,30.02,SSE,161,15.0,-999.0,44,0.00,,,0.00,0,WeatherHawk,2014-04-17 06:40:00,
2014-04-17 01:45:00,43.3,23.4,29.99,SSE,156,11.0,-999.0,45,0.00,,,0.00,0,WeatherHawk,2014-04-17 06:45:00,
2014-04-17 01:50:00,43.4,23.5,29.99,SE,139,15.0,-999.0,45,0.00,,,0.00,0,WeatherHawk,2014-04-17 06:50:00,
2014-04-17 01:55:00,43.2,23.3,30.00,ESE,102,14.0,-999.0,45,0.00,,,0.00,0,WeatherHawk,2014-04-17 06:55:00,
2014-04-17 02:00:00,43.0,23.2,29.98,SE,144,13.0,-999.0,45,0.00,,,0.00,0,WeatherHawk,2014-04-17 07:00:00,
2014-04-17 02:05:00,43.0,23.1,30.00,ESE,106,11.0,-999.0,45,0.00,,,0.00,0,WeatherHawk,2014-04-17 07:05:00,
2014-04-17 02:10:00,43.1,23.7,30.00,SSE,156,10.0,-999.0,46,0.00,,,0.00,0,WeatherHawk,2014-04-17 07:10:00,
2014-04-17 02:15:00,43.1,23.2,29.99,SSE,151,11.0,-999.0,45,0.00,,,0.00,1,WeatherHawk,2014-04-17 07:15:00,
2014-04-17 02:20:00,43.2,23.3,30.00,SSE,162,11.0,-999.0,45,0.00,,,0.00,0,WeatherHawk,2014-04-17 07:20:00,
2014-04-17 02:25:00,42.9,23.1,29.99,South,175,8.0,-999.0,45,0.00,,,0.00,0,WeatherHawk,2014-04-17 07:25:00,
2014-04-17 02:30:00,42.9,23.6,29.98,SSE,161,7.0,-999.0,46,0.00,,,0.00,1,WeatherHawk,2014-04-17 07:30:00,
2014-04-17 02:35:00,42.8,23.5,29.99,SSE,164,6.0,-999.0,46,0.00,,,0.00,0,WeatherHawk,2014-04-17 07:35:00,
2014-04-17 02:40:00,42.9,23.0,29.99,ESE,116,10.0,-999.0,45,0.00,,,0.00,1,WeatherHawk,2014-04-17 07:40:00,
2014-04-17 02:45:00,42.9,23.0,29.98,SE,135,10.0,-999.0,45,0.00,,,0.00,0,WeatherHawk,2014-04-17 07:45:00,
2014-04-17 02:50:00,42.8,23.5,29.98,SE,137,11.0,-999.0,46,0.00,,,0.00,0,WeatherHawk,2014-04-17 07:50:00,
2014-04-17 02:55:00,42.8,23.5,29.98,SE,131,8.0,-999.0,46,0.00,,,0.00,0,WeatherHawk,2014-04-17 07:55:00,
2014-04-17 03:00:00,42.9,23.0,29.97,SE,140,8.0,-999.0,45,0.00,,,0.00,0,WeatherHawk,2014-04-17 08:00:00,
2014-04-17 03:05:00,42.8,23.5,29.97,SSE,160,8.0,-999.0,46,0.00,,,0.00,0,WeatherHawk,2014-04-17 08:05:00,
2014-04-17 03:15:00,42.8,23.5,29.97,SE,141,10.0,-999.0,46,0.00,,,0.00,0,WeatherHawk,2014-04-17 08:15:00,
2014-04-17 03:20:00,42.6,23.3,29.97,SSE,156,6.0,-999.0,46,0.00,,,0.00,0,WeatherHawk,2014-04-17 08:20:00,
2014-04-17 03:25:00,42.6,23.3,29.97,SSE,163,8.0,-999.0,46,0.00,,,0.00,0,WeatherHawk,2014-04-17 08:25:00,
2014-04-17 03:30:00,42.7,23.3,29.97,ESE,118,12.0,-999.0,46,0.00,,,0.00,0,WeatherHawk,2014-04-17 08:30:00,
2014-04-17 03:35:00,42.7,23.4,29.97,South,175,8.0,-999.0,46,0.00,,,0.00,0,WeatherHawk,2014-04-17 08:35:00,
2014-04-17 03:40:00,42.9,23.5,29.96,ESE,114,9.0,-999.0,46,0.00,,,0.00,0,WeatherHawk,2014-04-17 08:40:00,
2014-04-17 03:45:00,42.4,23.6,29.97,South,170,7.0,-999.0,47,0.00,,,0.00,0,WeatherHawk,2014-04-17 08:45:00,
2014-04-17 03:50:00,42.5,23.7,29.97,SE,141,8.0,-999.0,47,0.00,,,0.00,0,WeatherHawk,2014-04-17 08:50:00,
2014-04-17 03:55:00,42.5,23.2,29.96,SSE,160,10.0,-999.0,46,0.00,,,0.00,0,WeatherHawk,2014-04-17 08:55:00,
2014-04-17 04:00:00,42.3,23.5,29.97,SE,144,12.0,-999.0,47,0.00,,,0.00,0,WeatherHawk,2014-04-17 09:00:00,
2014-04-17 04:05:00,42.5,23.7,29.97,SE,135,9.0,-999.0,47,0.00,,,0.00,0,WeatherHawk,2014-04-17 09:05:00,
2014-04-17 04:10:00,42.5,23.7,29.96,South,185,11.0,-999.0,47,0.00,,,0.00,0,WeatherHawk,2014-04-17 09:10:00,
2014-04-17 04:15:00,42.4,24.1,29.96,SE,145,7.0,-999.0,48,0.00,,,0.00,0,WeatherHawk,2014-04-17 09:15:00,
2014-04-17 04:20:00,42.8,24.5,29.96,SE,146,9.0,-999.0,48,0.00,,,0.00,0,WeatherHawk,2014-04-17 09:20:00,
2014-04-17 04:25:00,42.8,24.5,29.96,SSE,151,7.0,-999.0,48,0.00,,,0.00,0,WeatherHawk,2014-04-17 09:25:00,
2014-04-17 04:30:00,43.2,24.3,29.96,SSE,153,7.0,-999.0,47,0.00,,,0.00,0,WeatherHawk,2014-04-17 09:30:00,
2014-04-17 04:35:00,43.3,24.4,29.96,SSE,152,8.0,-999.0,47,0.00,,,0.00,0,WeatherHawk,2014-04-17 09:35:00,
2014-04-17 04:40:00,43.0,24.2,29.97,SSE,161,6.0,-999.0,47,0.00,,,0.00,0,WeatherHawk,2014-04-17 09:40:00,
2014-04-17 04:45:00,43.4,24.5,29.96,SSE,158,9.0,-999.0,47,0.00,,,0.00,0,WeatherHawk,2014-04-17 09:45:00,
2014-04-17 04:50:00,43.5,24.6,29.96,South,170,11.0,-999.0,47,0.00,,,0.00,0,WeatherHawk,2014-04-17 09:50:00,
2014-04-17 04:55:00,44.0,24.6,29.95,South,169,10.0,-999.0,46,0.00,,,0.00,0,WeatherHawk,2014-04-17 09:55:00,
2014-04-17 05:05:00,44.2,24.3,29.94,SSE,168,15.0,-999.0,45,0.00,,,0.00,0,WeatherHawk,2014-04-17 10:05:00,
2014-04-17 05:10:00,44.0,24.6,29.95,South,178,11.0,-999.0,46,0.00,,,0.00,0,WeatherHawk,2014-04-17 10:10:00,
2014-04-17 05:15:00,44.0,24.5,29.96,SSW,204,12.0,-999.0,46,0.00,,,0.00,1,WeatherHawk,2014-04-17 10:15:00,
2014-04-17 05:20:00,43.8,24.3,29.95,South,170,10.0,-999.0,46,0.00,,,0.00,0,WeatherHawk,2014-04-17 10:20:00,
2014-04-17 05:25:00,43.8,24.4,29.96,South,177,12.0,-999.0,46,0.00,,,0.00,0,WeatherHawk,2014-04-17 10:25:00,
2014-04-17 05:30:00,43.5,24.6,29.96,South,173,6.0,-999.0,47,0.00,,,0.00,0,WeatherHawk,2014-04-17 10:30:00,
2014-04-17 05:35:00,43.6,24.7,29.96,South,173,12.0,-999.0,47,0.00,,,0.00,0,WeatherHawk,2014-04-17 10:35:00,
2014-04-17 05:40:00,43.9,25.0,29.95,SSE,153,15.0,-999.0,47,0.00,,,0.00,0,WeatherHawk,2014-04-17 10:40:00,
2014-04-17 05:45:00,43.5,25.1,29.96,SSE,155,9.0,-999.0,48,0.00,,,0.00,0,WeatherHawk,2014-04-17 10:45:00,
2014-04-17 05:50:00,43.3,24.9,29.96,SSE,165,12.0,-999.0,48,0.00,,,0.00,0,WeatherHawk,2014-04-17 10:50:00,
2014-04-17 06:00:00,42.6,24.8,29.96,South,170,12.0,-999.0,49,0.00,,,0.00,0,WeatherHawk,2014-04-17 11:00:00,
2014-04-17 06:05:00,42.3,25.0,29.97,SE,143,9.0,-999.0,50,0.00,,,0.00,2,WeatherHawk,2014-04-17 11:05:00,
2014-04-17 06:15:00,42.5,26.1,29.96,South,178,12.0,-999.0,52,0.00,,,0.00,0,WeatherHawk,2014-04-17 11:15:00,
2014-04-17 06:20:00,42.5,26.1,29.97,SSW,194,9.0,-999.0,52,0.00,,,0.00,2,WeatherHawk,2014-04-17 11:20:00,
2014-04-17 06:25:00,42.4,26.5,29.96,South,174,11.0,-999.0,53,0.00,,,0.00,3,WeatherHawk,2014-04-17 11:25:00,
2014-04-17 06:30:00,42.3,26.4,29.97,SSE,161,10.0,-999.0,53,0.00,,,0.00,0,WeatherHawk,2014-04-17 11:30:00,